Overview Statistics Trail Chart Weather Telemetry Raw packets
 

This is the latest recevied weather packets stored in our database for station/object NO9B. If no packets are shown the sender has not sent any weather packets the latest 10 day(s).

<< 31 32 33 34 35 36 37 >>
Time Temp. Humidity Pressure Rain* Wind** Luminosity Snow
1788450271 22.22° C 94% 1017.4 hPa 6.6 mm - 4 W/m² -
1788449967 22.22° C 93% 1017.1 hPa 7.87 mm - 5 W/m² -
1788449662 22.22° C 92% 1016.7 hPa 3.56 mm - 7 W/m² -
1788449358 22.22° C 92% 1016.8 hPa 0.51 mm - 7 W/m² -
1788449054 22.78° C 92% 1017 hPa 0.51 mm - 7 W/m² -
1788448755 22.78° C 91% 1016.4 hPa 1.27 mm - 7 W/m² -
1788448450 22.78° C 90% 1016.9 hPa 0.51 mm - 10 W/m² -
1788448150 22.78° C 90% 1016.9 hPa 1.78 mm - 7 W/m² -
1788447845 22.78° C 88% 1016.6 hPa 0.51 mm - 6 W/m² -
1788447539 22.78° C 85% 1016.6 hPa 0 mm - 13 W/m² -
1788447235 22.78° C 84% 1016.3 hPa 0 mm - 10 W/m² -
1788446934 23.33° C 83% 1016.4 hPa 0 mm - 10 W/m² -
1788446630 23.33° C 82% 1016.4 hPa 0 mm - 8 W/m² -
1788446324 23.33° C 81% 1016.3 hPa 0 mm - 11 W/m² -
1788446022 23.89° C 79% 1016.4 hPa 0 mm - 14 W/m² -
1788445722 23.89° C 75% 1016.4 hPa 0 mm - 9 W/m² -
1788445418 23.89° C 73% 1016.2 hPa 0 mm - 9 W/m² -
1788445113 23.89° C 74% 1016.2 hPa 0 mm - 11 W/m² -
1788444809 23.89° C 76% 1016.1 hPa 0 mm - 12 W/m² -
1788444504 23.89° C 76% 1016.4 hPa 0 mm - 21 W/m² -
1788444199 23.89° C 74% 1016.1 hPa 0 mm - 25 W/m² -
1788443895 23.33° C 80% 1016 hPa 0 mm - 27 W/m² -
1788443590 23.33° C 82% 1016.2 hPa 0 mm - 23 W/m² -
1788443289 23.33° C 84% 1016.3 hPa 0 mm - 24 W/m² -
1788442985 23.89° C 84% 1016.3 hPa 0 mm - 16 W/m² -

* Rain latest hour (hover to see other rain measurements)
** Current wind speed in m/s (hover to see current wind gust speed)